Concordia, KS

8:28 AM CDT on July 26, 2016 (GMT -0500)
Blosser Municipal

Weather History for KCNK - September, 2013

Change the Weather History Date:

Wednesday, September 18, 2013

  Actual Average Record
Temperature  
Mean Temperature 82 °F 67 °F  
Max Temperature 94 °F 79 °F 100 °F (1931)
Min Temperature 69 °F 55 °F 36 °F (1901)
Degree Days  
Heating Degree Days 0 2  
Month to date heating degree days 7 22  
Since 1 July heating degree days 14 25  
Cooling Degree Days 17 4  
Month to date cooling degree days 193 123  
Year to date cooling degree days 1278 1289  
Growing Degree Days 31 (Base 50)    
Moisture  
Dew Point 64 °F    
Average Humidity 63    
Maximum Humidity 90    
Minimum Humidity 36    
Precipitation  
Precipitation 0.00 in 0.10 in 1.61 in (1919)
Month to date precipitation 0.56 1.76  
Year to date precipitation 24.13 22.86  
Snow  
Snow 0.00 in 0.00 in T in (1932)
Month to date snowfall 0.0 0.0  
Year to date snowfall 20.3 13.7  
Since 1 July snowfall 0.0 0.0  
Snow Depth 0.00 in    
Sea Level Pressure  
Sea Level Pressure 29.75 in    
Wind  
Wind Speed 19 mph (South)    
Max Wind Speed 31 mph    
Max Gust Speed 43 mph    
Visibility 10 miles    
Events      
T = Trace of Precipitation, MM = Missing Value Source: NWS Daily Summary

Daily Weather History Graph

Daily Weather History Graph

Search for Another Location

Airport or City:

Trip Planner

Search our weather history database for the weather conditions in past years. The results will help you decide how hot, cold, wet, or windy it might be!

Date:

Astronomy

Sep. 18, 2013 Rise Set
Actual Time 7:14 AM CDT 7:33 PM CDT
Civil Twilight 6:47 AM CDT 8:00 PM CDT
Nautical Twilight 6:16 AM CDT 8:32 PM CDT
Astronomical Twilight 5:43 AM CDT 9:04 PM CDT
Moon 6:57 PM CDT (9/18) 6:18 AM CDT (9/18)
Length of Visible Light 13h 12m
Length of Day
12h 18m
Waxing Gibbous, 99% of the Moon is Illuminated
Sep 18
Waxing Gibbous
Sep 19
Full
Sep 26
Last Quarter
Oct 4
New
Oct 11
First Quarter

Hourly Weather History & Observations

Time (CDT) Temp. Heat Index Dew Point Humidity Pressure Visibility Wind Dir Wind Speed Gust Speed Precip Events Conditions
12:55 AM 71.1 °F - 66.0 °F 84% 29.85 in 10.0 mi South 19.6 mph 26.5 mph N/A   Clear
1:55 AM 70.0 °F - 66.0 °F 87% 29.85 in 10.0 mi South 16.1 mph - N/A   Clear
2:55 AM 70.0 °F - 66.0 °F 87% 29.83 in 10.0 mi South 16.1 mph - N/A   Clear
3:55 AM 70.0 °F - 66.0 °F 87% 29.81 in 10.0 mi South 18.4 mph 27.6 mph N/A   Clear
4:55 AM 70.0 °F - 66.0 °F 87% 29.79 in 10.0 mi South 18.4 mph 24.2 mph N/A   Clear
5:55 AM 70.0 °F - 66.0 °F 87% 29.79 in 10.0 mi South 16.1 mph - N/A   Clear
6:55 AM 70.0 °F - 64.9 °F 84% 29.79 in 10.0 mi South 17.3 mph 23.0 mph N/A   Clear
7:55 AM 71.1 °F - 66.0 °F 84% 29.81 in 10.0 mi South 15.0 mph - N/A   Clear
8:55 AM 73.0 °F - 66.0 °F 79% 29.79 in 10.0 mi South 18.4 mph 27.6 mph N/A   Clear
9:55 AM 78.1 °F - 66.9 °F 68% 29.79 in 10.0 mi South 18.4 mph 26.5 mph N/A   Clear
10:55 AM 82.9 °F 85.0 °F 66.0 °F 56% 29.78 in 10.0 mi SSW 20.7 mph 28.8 mph N/A   Clear
11:55 AM 86.0 °F 88.8 °F 66.9 °F 53% 29.75 in 10.0 mi South 19.6 mph 28.8 mph N/A   Clear
12:55 PM 88.0 °F 90.3 °F 66.0 °F 48% 29.73 in 10.0 mi South 23.0 mph 31.1 mph N/A   Clear
1:55 PM 89.1 °F 91.0 °F 64.9 °F 45% 29.71 in 10.0 mi South 24.2 mph 33.4 mph N/A   Clear
2:55 PM 91.0 °F 93.0 °F 64.9 °F 42% 29.69 in 10.0 mi SSW 21.9 mph 35.7 mph N/A   Clear
3:55 PM 93.0 °F 94.2 °F 63.0 °F 37% 29.67 in 10.0 mi SSW 23.0 mph 36.8 mph N/A   Clear
4:55 PM 93.0 °F 93.8 °F 62.1 °F 36% 29.66 in 10.0 mi SSW 25.3 mph 33.4 mph N/A   Clear
5:55 PM 91.9 °F 91.8 °F 61.0 °F 35% 29.67 in 10.0 mi SSW 24.2 mph 35.7 mph N/A   Clear
6:55 PM 88.0 °F 89.3 °F 64.0 °F 45% 29.67 in 10.0 mi South 17.3 mph 24.2 mph N/A   Clear
7:55 PM 84.0 °F 84.5 °F 62.1 °F 47% 29.67 in 10.0 mi South 15.0 mph 24.2 mph N/A   Clear
8:55 PM 82.0 °F 82.4 °F 60.1 °F 47% 29.69 in 10.0 mi South 16.1 mph 21.9 mph N/A   Clear
9:55 PM 82.0 °F 82.7 °F 61.0 °F 49% 29.71 in 10.0 mi South 18.4 mph 26.5 mph N/A   Clear
10:55 PM 81.0 °F 81.6 °F 60.1 °F 49% 29.72 in 10.0 mi South 20.7 mph 34.5 mph N/A   Clear
11:55 PM 79.0 °F - 60.1 °F 52% 29.72 in 10.0 mi South 20.7 mph 27.6 mph N/A   Clear